Location: Del Amo
(33.8464°N, 118.2104°W)
Time: 08:52:42
(UTC+00:00)

Vanguard 1 Rocket - Pass Details

Date: 21 September 2024
Orbit: 650 x 4218 km, 34.3° (Epoch: 09 October)

Event Time Altitude Azimuth Distance (km) Brightness Sun altitude
Rises 10:04:40 0° 246° (WSW) 4,402 - -42.7°
Reaches altitude 10° 10:07:00 10° 244° (WSW) 3,727 - -42.3°
Exits shadow 10:16:42 77° 184° (S) 2,397 9.1 -40.7°
Maximum altitude 10:17:18 78° 160° (SSE) 2,439 9.2 -40.6°
Drops below altitude 10° 10:38:00 10° 78° (ENE) 6,881 12.5 -37.1°
Sets 10:44:12 0° 78° (ENE) 8,223 13.2 -36.0°
